Greenville, WI

11:11 PM CST on December 02, 2016 (GMT -0600)
Outagamie County Regional

Weather History for KATW - April, 2013

Change the Weather History Date:

Tuesday, April 9, 2013

  Actual Average Record
Temperature  
Mean Temperature 34 °F -  
Max Temperature 37 °F 49 °F 76 °F (1987)
Min Temperature 32 °F 31 °F 12 °F (2016)
Degree Days  
Heating Degree Days 30    
Moisture  
Dew Point 33 °F    
Average Humidity 94    
Maximum Humidity 100    
Minimum Humidity 75    
Precipitation  
Precipitation 0.01 in - - ()
Sea Level Pressure  
Sea Level Pressure 30.03 in    
Wind  
Wind Speed 10 mph (NE)    
Max Wind Speed 21 mph    
Max Gust Speed 30 mph    
Visibility 6 miles    
Events Fog , Rain , Thunderstorm    
Averages and records for this station are not official NWS values.
T = Trace of Precipitation, MM = Missing Value Source: NWS Daily Summary

Daily Weather History Graph

Daily Weather History Graph

Search for Another Location

Airport or City:

Trip Planner

Search our weather history database for the weather conditions in past years. The results will help you decide how hot, cold, wet, or windy it might be!

Date:

Astronomy

Apr. 09, 2013 Rise Set
Actual Time 6:20 AM CDT 7:31 PM CDT
Civil Twilight 5:50 AM CDT 8:01 PM CDT
Nautical Twilight 5:15 AM CDT 8:37 PM CDT
Astronomical Twilight 4:37 AM CDT 9:14 PM CDT
Moon 5:44 AM CDT (4/9) 7:07 PM CDT (4/9)
Length of Visible Light 14h 10m
Length of Day
13h 11m
Waning Crescent, 1% of the Moon is Illuminated
Apr 9
Waning Crescent
Apr 10
New
Apr 18
First Quarter
Apr 25
Full
May 2
Last Quarter

Hourly Weather History & Observations

Time (CDT) Temp. Windchill Dew Point Humidity Pressure Visibility Wind Dir Wind Speed Gust Speed Precip Events Conditions
12:15 AM 35.6 °F 29.9 °F 33.8 °F 93% 30.03 in 10.0 mi NNE 6.9 mph - N/A   Overcast
12:35 AM 35.6 °F 30.7 °F 33.8 °F 93% 30.02 in 10.0 mi NE 5.8 mph - N/A   Overcast
12:55 AM 35.6 °F 29.9 °F 33.8 °F 93% 30.03 in 7.0 mi NNE 6.9 mph - N/A   Overcast
1:15 AM 35.6 °F 30.7 °F 33.8 °F 93% 30.04 in 7.0 mi NNE 5.8 mph - N/A   Overcast
1:35 AM 35.6 °F 30.7 °F 33.8 °F 93% 30.04 in 7.0 mi NNE 5.8 mph - N/A   Overcast
1:55 AM 33.8 °F 25.8 °F 33.8 °F 100% 30.02 in 7.0 mi NNE 10.4 mph - N/A   Overcast
2:15 AM 33.8 °F 27.7 °F 33.8 °F 100% 30.03 in 7.0 mi NE 6.9 mph - N/A   Overcast
2:35 AM 33.8 °F 26.4 °F 33.8 °F 100% 30.03 in 5.0 mi ENE 9.2 mph - N/A   Overcast
2:55 AM 33.8 °F 28.6 °F 33.8 °F 100% 30.03 in 4.0 mi ENE 5.8 mph - N/A   Overcast
3:15 AM 35.6 °F 28.6 °F 33.8 °F 93% 30.02 in 10.0 mi ENE 9.2 mph - N/A   Overcast
3:35 AM 35.6 °F 28.6 °F 33.8 °F 93% 30.01 in 10.0 mi ENE 9.2 mph - N/A   Overcast
3:55 AM 33.8 °F 27.7 °F 33.8 °F 100% 30.02 in 7.0 mi East 6.9 mph - N/A   Overcast
4:15 AM 33.8 °F 27.0 °F 33.8 °F 100% 30.02 in 7.0 mi ENE 8.1 mph - N/A   Overcast
4:35 AM 33.8 °F 27.0 °F 33.8 °F 100% 30.02 in 3.0 mi ENE 8.1 mph - N/A   Overcast
4:55 AM 33.8 °F 26.4 °F 33.8 °F 100% 30.03 in 1.2 mi ENE 9.2 mph - N/A   Overcast
5:15 AM 33.8 °F 27.7 °F 33.8 °F 100% 30.03 in 2.0 mi ENE 6.9 mph - N/A   Overcast
6:45 AM 35.6 °F 29.2 °F 35.6 °F 100% 30.04 in 0.2 mi NE 8.1 mph - N/A Fog Fog
7:45 AM 33.8 °F 25.3 °F 33.8 °F 100% 30.02 in 0.2 mi NNE 11.5 mph - N/A Fog Fog
9:45 AM 35.6 °F 28.6 °F 35.6 °F 100% 30.01 in 0.5 mi NE 9.2 mph - N/A Fog Fog
10:45 AM 35.6 °F 26.6 °F 35.6 °F 100% 29.99 in 0.8 mi NE 13.8 mph - N/A   Mist
11:45 AM 35.6 °F 27.1 °F 35.6 °F 100% 29.98 in 3.0 mi NE 12.7 mph 23.0 mph N/A Rain Light Rain
12:45 PM 35.6 °F 26.6 °F 35.6 °F 100% 29.98 in 4.0 mi NE 13.8 mph 19.6 mph N/A Rain Light Rain
1:45 PM 35.6 °F 26.6 °F 35.6 °F 100% 30.02 in 2.0 mi NNE 13.8 mph 23.0 mph N/A Rain , Thunderstorm Light Thunderstorms and Rain
2:25 PM 35.6 °F 25.5 °F 35.6 °F 100% 29.98 in 5.0 mi NE 17.3 mph 25.3 mph N/A Rain Light Rain
2:45 PM 35.6 °F 24.8 °F 35.6 °F 100% 29.97 in 5.0 mi NE 19.6 mph 29.9 mph N/A Rain Light Rain
3:45 PM 37.4 °F 27.2 °F 37.4 °F 100% 30.00 in 5.0 mi NE 19.6 mph 27.6 mph N/A Rain Light Rain
4:45 PM 37.4 °F 27.2 °F 37.4 °F 100% 30.01 in 7.0 mi NE 19.6 mph 27.6 mph N/A   Overcast
5:45 PM 37.4 °F 27.5 °F 35.6 °F 93% 30.02 in 7.0 mi NE 18.4 mph 25.3 mph N/A   Overcast
6:20 PM 37.4 °F 27.8 °F 33.8 °F 87% 30.05 in 7.0 mi NE 17.3 mph 27.6 mph N/A   Overcast
6:45 PM 37.4 °F 27.2 °F 33.8 °F 87% 30.06 in 10.0 mi NE 19.6 mph 27.6 mph N/A   Overcast
7:45 PM 35.6 °F 24.5 °F 33.8 °F 93% 30.06 in 10.0 mi NE 20.7 mph - N/A   Overcast
8:45 PM 35.6 °F 26.2 °F 33.8 °F 93% 30.08 in 10.0 mi NE 15.0 mph 23.0 mph N/A   Mostly Cloudy
9:45 PM 35.6 °F 26.6 °F 30.2 °F 81% 30.07 in 10.0 mi NE 13.8 mph 21.9 mph N/A   Overcast
10:45 PM 33.8 °F 23.2 °F 26.6 °F 75% 30.07 in 10.0 mi NE 17.3 mph 25.3 mph N/A   Overcast
10:55 PM 33.8 °F 23.9 °F 26.6 °F 75% 30.05 in 10.0 mi NE 15.0 mph 23.0 mph N/A   Mostly Cloudy
11:15 PM 32.0 °F 21.2 °F 26.6 °F 80% 30.05 in 10.0 mi NE 16.1 mph 25.3 mph N/A   Mostly Cloudy
11:35 PM 32.0 °F 20.8 °F 28.4 °F 87% 30.03 in 10.0 mi NE 17.3 mph 21.9 mph N/A Rain , Thunderstorm Light Thunderstorms and Rain
11:55 PM 32.0 °F 21.6 °F 28.4 °F 87% 30.08 in 10.0 mi NE 15.0 mph 28.8 mph 0.01 in Rain , Thunderstorm Light Thunderstorms and Rain